Regional Weather Roundup
Issued by NWS Little Rock, AR

Home | Current Version | Previous Version | Graphics & Text | Print | Product List | Glossary On
Versions: 1 2 3 4 5 6 7 8 9 10 11 12 13 14 15 16 17 18 19 20 21 22 23 24 25 26 27
000
ASUS44 KLZK 251505
RWRLZK

WEATHER ROUNDUP FOR ARKANSAS
NATIONAL WEATHER SERVICE LITTLE ROCK AR
1000 AM CDT WED MAY 25 2016

NOTE: "FAIR" INDICATES FEW OR NO CLOUDS BELOW 12,000 FEET WITH NO
SIGNIFICANT WEATHER AND/OR OBSTRUCTIONS TO VISIBILITY.

ARZ001-003-010-029-251600-
NORTHWEST ARKANSAS

CITY           SKY/WX    TMP DP  RH WIND       PRES   REMARKS
FAYETTEVILLE   TSTM      62  62 100 NE8G20    30.10R FOG
FORT SMITH     CLOUDY    71  65  81 N6        30.02R
HARRISON       LGT RAIN  64  63  96 NW8       30.11S
BENTONVILLE    CLOUDY    63  57  82 E21G26    30.03F
ROGERS         RAIN      63  61  94 E18       30.05F
SILOAM SPGS    CLOUDY    63  54  72 E12G22    30.01F
HIGHFILL       LGT RAIN  63  62  97 E20G26    30.00F
SPRINGDALE     RAIN      63  61  94 N15G23    30.14R FOG
$$

ARZ004-005-016-251600-
NORTH CENTRAL ARKANSAS

CITY           SKY/WX    TMP DP  RH WIND       PRES   REMARKS
BATESVILLE     CLOUDY    66  63  88 SE5       30.03F
FLIPPIN        CLOUDY   N/A N/A N/A N5        30.06R
MTN HOME       PTSUNNY   67  65  93 CALM      30.08R
$$

ARZ040-041-251600-
WEST CENTRAL ARKANSAS

CITY           SKY/WX    TMP DP  RH WIND       PRES   REMARKS
MENA           CLOUDY    77  73  88 S5        30.05S
MOUNT IDA      CLOUDY    68  65  90 SE6       30.04S
$$

ARZ009-017-025-026-028-251600-
NORTHEAST ARKANSAS

CITY           SKY/WX    TMP DP  RH WIND       PRES   REMARKS
CORNING          N/A     70  68  94 SW12      30.07F
JONESBORO      CLOUDY    72  66  81 SW16      30.08R
NEWPORT        TSTM      68  68 100 S7        30.09S FOG
WALNUT RIDGE   CLOUDY    70  63  78 S15       30.07S
BLYTHEVILLE    CLOUDY    73  67  81 SW13      30.10R
NW BLYTHEVILLE CLOUDY    73  66  78 SW15G21   30.09R
$$

ARZ022-023-033-042-044-251600-
CENTRAL ARKANSAS

CITY           SKY/WX    TMP DP  RH WIND       PRES   REMARKS
LITTLE ROCK    PTSUNNY   74  69  85 S7        30.07R
N LITTLE ROCK    N/A     71  68  89 S6        30.05S
JACKSONVILLE   CLOUDY    71  70  97 S6        30.06R
SEARCY         CLOUDY    68  67  96 VRB3      30.05F
HOT SPRINGS    CLOUDY    70  67  90 SE5       30.07S
RUSSELLVILLE   CLOUDY    70  66  87 SE3       30.04F
CLINTON        FAIR      68  66  94 CALM      30.06R
$$

ARZ036-251600-
EAST ARKANSAS

CITY           SKY/WX    TMP DP  RH WIND       PRES   REMARKS
WEST MEMPHIS   CLOUDY    73  69  87 S8        30.11R
$$

ARZ050-053-066-070-073-251600-
SOUTHWEST ARKANSAS

CITY           SKY/WX    TMP DP  RH WIND       PRES   REMARKS
ARKADELPHIA    PTSUNNY   73  72  97 CALM      30.08S
CAMDEN         CLOUDY    77  70  78 SE5       30.07F
TEXARKANA      CLOUDY    79  72  79 S12       30.05S
EL DORADO      CLOUDY    79  73  82 S7        30.07F
DE QUEEN       CLOUDY    79  73  82 S9        30.01S
$$

ARZ056-057-069-251600-
SOUTHEAST ARKANSAS

CITY           SKY/WX    TMP DP  RH WIND       PRES   REMARKS
PINE BLUFF     CLOUDY    75  69  81 S6        30.09F
STUTTGART      CLOUDY    75  66  73 S12       30.08F
MONTICELLO     PTSUNNY   80  72  76 VRB7      30.09F

$$






USA.gov is the U.S. government's official web portal to all federal, state and local government web resources and services.